DELTA 1 DEB, 10658

Orbit data source: Space-Track

DELTA 1 DEB, 10658 is space debris in SSO originally from a launch on Thu, 29 Jul 1976 UTC launched from the Air Force Western Test Range (AFWTR). Debris objects in space refer to the collection of defunct objects orbiting the Earth. Examples of debris include non-operational satellites, rocket bodies, and fragments generated from explosions, collisions, or faulty payload assembly.

Loading next visibility...
Identifier
10658, 1976-077U
Orbit
SSO
Country
Flag of USUS
Related business
Manufacturer
Unknown
Mission
Spacecraft
Bus & Motor
Unknown
Mass
Unknown
Launch date (UTC)
1976-07-29 (49 years ago)
Launch vehicle
Unknown
Launch site
Air Force Western Test Range (AFWTR)
Object type
Payload
Rocket body
Debris
Shape & HBR
Unknown shape, 0.7 m
Radar Cross Section
Medium (>0.1 m² and <1 m²)

Expand to show TLE details & history
Last TLE update: 14 hours ago

TLE from 14 hours ago
0 DELTA 1 DEB
1 10658U 76077U   25292.27278532 -.00000018  00000-0  23401-3 0  9996
2 10658 102.4630 273.3911 0056981  80.3970  34.4802 12.29952550210307
Epoch: 2025-10-19T06:32Z
TLE epoch observation values (Epoch: 2025-10-19T06:32:48.651Z)
Latitude
62.11379°
Longitude
-8.24431°
Altitude
1,522.758 km
Speed
7.126 km/s
True Right ascension
07h 51m 48s
True Declination
61° 59' 07"
Sunlit
Object was in daylight at epoch
Visualization orbit readout
Latitude
Unknown
Longitude
Unknown
Altitude
Unknown
Speed
Unknown
Apparent Right ascension
Unknown
Apparent Declination
Unknown
Sunlit
N/A
Visualization observer readout
Local Sidereal Time
15:48:48
Azimuth
Unknown
Elevation
Unknown
Doppler factor
Unknown
Orbital elements
Apogee altitude
1,592.26 km
Perigee altitude
1,501.942 km
Semi-major axis
7,925.238 km
Eccentricity
0.0057
Inclination
102.463°
RAAN
273.3911°
Arg. of periapsis
80.397°
True anomaly
34.85203°
Mean anomaly
34.4802°
Eccentric anomaly
34.6659°
Mean motion
3.07627 °/min
Orbital period
117.02 mins
BSTAR
0.00023401
Loading maneuver chart data...
Computing Atmospheric mass density...
Loading historical data...
Loading historical data...
Loading historical data...
Loading historical data...
Loading historical data...
Loading historical data...
Loading historical data...

Documentation

Showing up to 5 results
|